Location: Asheville, NC
(35.6000°N, 82.5500°W)
Time: 02:23:06
(UTC-04:00)

STRAND 1 - Pass Details

Date: 11 March 2018
Orbit: 769 x 781 km, 98.5° (Epoch: 20 June)

Event Time Altitude Azimuth Distance (km) Brightness Sun altitude
Rises 20:08:41 0° 27° (NNE) 3,259 ? -7.8°
Reaches altitude 10° 20:11:25 10° 41° (NE) 2,326 ? -8.4°
Maximum altitude 20:15:35 25° 96° (E) 1,531 ? -9.2°
Drops below altitude 10° 20:19:42 10° 150° (SSE) 2,307 ? -10.0°
Sets 20:22:23 0° 164° (SSE) 3,227 ? -10.6°
